Location: Briese
(52.7048°N, 13.3016°E)
Time: 09:24:28
(UTC+00:00)

Daily predictions for brighter satellites

Satellite Brightness Start Highest point End
(mag) Time Altitude Azimuth Time Altitude Azimuth Time Altitude Azimuth
Cosmos 1452 Rocket 3.5 19:57:08 10° SSW 20:02:24 79° ESE 20:07:44 10° NNE
BREEZE-M DEB 4.4 20:01:02 10° SSE 20:02:42 14° SE 20:05:11 10° E
Landsat 7 3.9 19:59:13 10° SSE 20:03:58 83° ENE 20:08:46 10° NNW
STARLINK-1224 3.7 20:00:17 10° SW 20:04:20 55° SSE 20:08:24 10° ENE
STARLINK-1208 3.7 20:02:47 10° W 20:06:57 89° N 20:11:07 10° E
STARLINK-1099 4.0 20:03:18 10° WNW 20:07:20 51° SSW 20:11:22 10° SE
Cosmos 1461 3.2 20:04:56 10° SSW 20:08:57 47° SE 20:13:12 10° NE
STARLINK-1225 3.7 20:05:14 10° SW 20:09:18 58° SSE 20:13:23 10° ENE
SAR-Lupe-2 3.8 20:06:13 10° NNE 20:09:46 51° ESE 20:13:16 10° S
Okean 3 4.3 20:06:53 10° SSW 20:11:08 57° WNW 20:15:24 10° N
STARLINK-1271 3.7 20:07:48 10° W 20:11:58 87° N 20:16:08 10° E
STARLINK-1104 4.1 20:08:17 10° W 20:12:17 49° SSW 20:16:18 10° SE
Cosmos 2369 Rocket 3.6 20:08:32 10° SE 20:12:25 19° E 20:16:19 10° ENE
STARLINK-1212 2.9 20:10:47 10° W 20:13:55 85° N 20:17:02 10° E
STARLINK-1230 3.6 20:10:11 10° WSW 20:14:16 60° SSE 20:18:22 10° ENE
STARLINK-1105 2.9 20:11:15 10° W 20:14:22 85° N 20:17:29 10° E
NOSS 2-2 (C) 4.2 20:12:12 10° S 20:15:13 26° ESE 20:18:35 10° ENE
STARLINK-1247 2.9 20:12:08 10° W 20:15:15 86° N 20:18:24 10° E
STARLINK-1227 2.9 20:12:37 10° W 20:15:45 86° N 20:18:52 10° E
CZ-4B DEB 4.4 20:12:30 10° SSE 20:15:49 75° ENE 20:19:10 10° N
STARLINK-1226 2.9 20:13:29 10° W 20:16:37 86° N 20:19:44 10° E
STARLINK-1154 3.7 20:12:46 10° W 20:16:57 87° N 20:21:06 10° E
STARLINK-1144 4.1 20:13:17 10° W 20:17:15 46° SSW 20:21:14 10° SE
STARLINK-1215 2.9 20:14:23 10° W 20:17:30 86° N 20:20:39 10° E
NOSS 3-2 (A) 4.1 20:11:45 10° NW 20:19:03 87° NE 20:27:22 10° SE
STARLINK-1243 3.6 20:15:09 10° WSW 20:19:15 63° SSE 20:23:22 10° ENE
STARLINK-1217 2.9 20:16:12 10° W 20:19:19 87° N 20:22:27 10° E
ATLAS 2AS CENTAUR R/B 4.3 20:14:33 10° SE 20:19:38 19° ESE 20:24:43 10° ENE
SPOT 5 3.3 20:14:52 10° SSE 20:20:05 66° ENE 20:25:25 10° N
STARLINK-1229 2.9 20:17:06 10° W 20:20:14 87° N 20:23:23 10° E
STARLINK-1270 2.9 20:18:00 10° W 20:21:08 87° N 20:24:16 10° E
OPS 6432 4.3 20:18:08 10° NW 20:21:10 87° SW 20:24:53 10° SE
STARLINK-1197 3.7 20:17:44 10° W 20:21:54 86° N 20:26:04 10° E
STARLINK-1103 4.2 20:18:15 10° W 20:22:12 44° SSW 20:26:09 10° SE
NOSS 8 (F) 4.1 20:19:18 10° SW 20:22:23 66° SE 20:25:28 10° NE
STARLINK-1189 2.9 20:19:47 10° W 20:22:55 88° N 20:26:03 10° E
STARLINK-1188 2.9 20:20:42 10° W 20:23:51 88° NNE 20:26:59 10° E
STARLINK-1236 3.6 20:20:06 10° WSW 20:24:12 66° SSE 20:28:20 10° ENE
STARLINK-1187 2.8 20:21:47 10° W 20:24:54 89° SSW 20:28:01 10° E
ERS-1 Rocket 3.0 20:20:14 10° SSE 20:25:16 81° ENE 20:30:21 10° NNW
STARLINK-1191 2.8 20:23:09 10° W 20:26:16 89° N 20:29:23 10° E
STARLINK-1198 3.7 20:22:43 10° W 20:26:53 85° N 20:31:03 10° E
STARLINK-1101 4.3 20:23:15 10° W 20:27:10 41° SSW 20:31:00 10° SE
STARLINK-1221 2.8 20:24:06 10° W 20:27:13 89° NNW 20:30:20 10° E
STARLINK-1222 2.8 20:24:57 10° W 20:28:04 90° N 20:31:11 10° E
STARLINK-1214 2.8 20:25:50 10° W 20:28:58 90° WNW 20:32:05 10° E
Okean 2 4.3 20:26:06 10° SSE 20:29:48 32° E 20:33:31 10° NNE
Cosmos 1066 Rocket 4.1 20:24:58 10° S 20:30:20 72° E 20:35:41 10° NNE
USA 238 DEB 3.9 20:23:48 10° NW 20:30:58 85° SW 20:38:25 10° SE
USA 238 3.9 20:23:54 10° NW 20:31:05 86° SW 20:38:32 10° SE
USA 245 3.8 20:29:01 10° S 20:31:40 33° WSW 20:33:59 10° NNW
STARLINK-1199 3.7 20:27:43 10° W 20:31:53 85° N 20:36:03 10° E
STARLINK-1102 4.3 20:28:15 10° W 20:32:08 39° SSW 20:35:48 11° SE
Cosmos 968 Rocket 4.3 20:27:34 10° NNW 20:32:28 41° NE 20:37:19 10° SE
Okean 1 Rocket 3.3 20:28:23 10° NNW 20:32:52 74° W 20:37:17 10° S
Cosmos 1805 3.3 20:29:15 10° N 20:33:12 75° ENE 20:37:07 10° SSE
Cosmos 1470 4.3 20:30:01 10° NNE 20:33:14 24° ENE 20:36:25 10° ESE
STARLINK-1228 3.1 20:29:54 10° W 20:33:24 82° SSW 20:36:55 10° ESE
STARLINK-1269 3.6 20:30:02 10° WSW 20:34:09 71° SSE 20:38:18 10° ENE
Resurs 01 Rocket 3.7 20:31:54 10° SSW 20:35:32 24° W 20:39:11 10° NW
Cosmos 2278 Rocket 3.4 20:30:04 10° WSW 20:35:32 47° NW 20:41:04 10° NNE
TSX-5 4.2 20:30:13 10° SSW 20:35:34 81° SE 20:39:43 10° NE
STARLINK-1235 2.9 20:33:31 10° W 20:36:46 81° SSW 20:40:01 10° ESE
Nadezhda 4 Rocket 4.0 20:30:42 10° S 20:36:48 77° E 20:42:56 10° NNE
STARLINK-1210 3.7 20:32:41 10° W 20:36:52 85° N 20:41:01 10° E
STARLINK-1111 4.4 20:33:14 10° W 20:37:04 37° SSW 20:40:34 12° SE
Cosmos 1455 Rocket 3.7 20:34:19 10° N 20:38:29 43° ENE 20:42:18 12° SE
STARLINK-1200 3.5 20:34:58 10° WSW 20:39:07 74° SSE 20:43:15 10° E
STARLINK-1219 3.7 20:37:40 10° W 20:41:50 84° N 20:46:00 10° E
STARLINK-1073 4.5 20:38:14 10° W 20:42:02 35° SSW 20:45:22 13° SSE
STARLINK-1192 3.5 20:39:58 10° WSW 20:44:06 76° SSE 20:48:15 10° E
ATLAS CENTAUR R/B 2.8 20:44:34 10° WNW 20:46:07 21° N 20:47:42 10° NE
STARLINK-1211 3.7 20:42:40 10° W 20:46:50 85° N 20:51:00 10° E
Cosmos 371 Rocket 4.5 20:42:38 10° SW 20:47:19 47° WNW 20:52:05 10° NNE
SL-4 R/B 3.7 20:45:33 10° S 20:48:54 19° SE 20:52:19 10° E
Terra 1.8 20:44:22 11° SSE 20:48:56 83° ENE 20:53:44 10° NNW
STARLINK-1244 3.5 20:44:55 10° WSW 20:49:04 78° SSE 20:53:13 10° E
Cosmos 1110 Rocket 3.9 20:44:09 10° SSW 20:49:19 80° ESE 20:54:32 10° NNE
Abrixas rocket 4.1 20:49:04 10° WSW 20:50:39 14° SSW 20:51:50 11° S
SPOT 1/Viking Rocket 4.3 20:46:12 10° S 20:51:12 50° W 20:56:13 10° NNW
STARLINK-1245 3.7 20:47:38 10° W 20:51:48 85° N 20:55:58 10° E
Cosmos 1842 3.9 20:48:52 13° SSE 20:52:04 39° E 20:55:43 10° NNE
CARTOSAT-1 3.9 20:47:58 10° S 20:52:15 63° WSW 20:56:34 10° NNW
ERBS 3.4 20:50:09 10° W 20:53:21 46° NNW 20:56:36 10° ENE
NOSS 8 (H) 4.0 20:50:29 10° SW 20:53:33 80° SE 20:56:42 10° NE
STARLINK-1138 3.5 20:49:54 10° WSW 20:54:03 81° SSE 20:58:12 10° E
STARLINK-1234 2.9 20:51:17 10° W 20:54:33 70° SSW 20:57:43 11° ESE
STARLINK-1233 3.7 20:52:35 10° W 20:56:46 85° N 21:00:56 10° E
STARLINK-1143 3.5 20:54:51 10° WSW 20:59:00 83° SSE 21:03:10 10° E
STARLINK-1209 3.0 20:57:15 10° W 21:00:32 64° SSW 21:03:27 12° ESE
STARLINK-1204 3.6 20:57:35 10° W 21:01:46 86° N 21:05:55 10° E
STARLINK-1241 3.6 20:59:52 10° WSW 21:04:01 85° SSE 21:08:11 10° E
Cosmos 1331 Rocket 4.0 21:00:57 10° SSW 21:06:07 85° WNW 21:11:22 10° NNE
Cosmos 1733 3.3 21:02:29 10° NNW 21:06:18 71° W 21:09:32 14° S
STARLINK-1238 3.6 21:02:35 10° W 21:06:46 87° N 21:10:55 10° E
Aureole 2 Rocket 3.6 21:04:00 10° SW 21:06:53 37° WNW 21:09:39 10° NNE
STARLINK-1239 3.6 21:04:50 10° WSW 21:08:59 87° SSE 21:13:09 10° E
STARLINK-1201 3.6 21:07:34 10° W 21:11:44 87° NNE 21:15:54 10° E
COSMOS 2455 4.3 21:09:44 14° SE 21:12:48 20° ESE 21:16:58 10° ENE
Cosmos 1486 Rocket 4.0 21:08:35 10° NNW 21:13:56 86° WSW 21:18:13 16° SSE
STARLINK-1240 3.6 21:09:47 10° W 21:13:58 88° SSE 21:18:07 10° E
Cosmos 1378 3.6 21:10:22 10° SSW 21:14:02 58° WNW 21:17:44 10° N
Cosmos 1833 4.3 21:08:45 10° NNW 21:14:25 72° NE 21:19:13 15° SE
USA 215 3.5 21:08:43 10° ESE 21:15:17 77° NNE 21:21:50 10° WNW
Cosmos 1544 Rocket 3.6 21:11:00 10° N 21:15:21 71° ENE 21:18:39 17° SSE
Cosmos 1302 Rocket 4.0 21:10:59 10° SSW 21:16:14 68° ESE 21:21:31 10° NNE
Cosmos 2297 Rocket 4.4 21:12:17 10° NNW 21:16:27 20° NNE 21:20:37 10° ENE
MTI 3.6 21:13:25 10° NNE 21:16:35 72° ESE 21:18:58 16° S
STARLINK-1206 3.6 21:12:34 10° W 21:16:44 89° NNE 21:20:54 10° E
Cosmos 1271 Rocket 3.7 21:14:22 17° SSE 21:16:46 33° E 21:20:21 10° NNE
Cosmos 1242 Rocket 3.0 21:15:26 17° SSE 21:17:55 46° E 21:21:29 10° NNE
Spot 4 4.5 21:14:22 14° SE 21:18:15 47° ENE 21:22:55 10° N
STARLINK-1203 3.6 21:14:36 10° W 21:18:50 90° SSE 21:23:04 10° E
STARLINK-1216 3.6 21:14:46 10° W 21:18:55 90° SSW 21:23:05 10° E
STARLINK-60 4.2 21:20:10 21° SSE 21:20:41 22° SE 21:23:13 10° E
STARLINK-1205 3.6 21:17:32 10° W 21:21:42 90° NE 21:25:52 10° E
Cosmos 1092 Rocket 4.1 21:16:13 10° SSW 21:22:22 81° W 21:28:34 10° N
NOSS 2-2 (D) 3.2 21:19:48 10° SW 21:23:25 89° NW 21:27:43 10° NE
CENTAUR R/B 3.2 21:15:38 10° NW 21:23:30 77° SW 21:31:08 14° SE
STARLINK-1237 3.6 21:19:45 10° W 21:23:54 89° NNW 21:28:04 10° E
Lacrosse 4 Rocket 4.4 21:23:14 10° NNW 21:25:26 13° NNE 21:27:38 10° NE
STARLINK-1218 3.6 21:22:31 10° W 21:26:42 89° S 21:30:52 10° E
Cosmos 1707 3.6 21:24:35 19° SSE 21:26:52 35° E 21:30:26 10° NNE
ATLAS 3B R/B 2.9 21:20:08 10° NW 21:26:53 72° NE 21:33:51 10° SE
SL-27 R/B 3.1 21:23:36 10° NW 21:27:05 47° WSW 21:29:28 18° S
NOSS 3-2 (C) 4.2 21:21:23 10° NW 21:28:42 67° SW 21:35:36 16° SSE
STARLINK-1202 3.6 21:24:44 10° W 21:28:54 88° N 21:33:03 10° E
Cosmos 1726 3.1 21:27:01 10° N 21:30:29 36° ENE 21:32:50 18° SE
STARLINK-1254 3.6 21:27:30 10° W 21:31:40 87° SSW 21:35:50 10° ESE
Cosmos 1867 3.6 21:28:14 10° NW 21:33:45 87° SW 21:38:07 16° SE
ALOS 2 3.8 21:30:24 13° SE 21:33:45 33° ENE 21:37:42 10° N
COSMOS 2487 3.2 21:31:26 10° NNW 21:34:46 43° ENE 21:37:03 18° SE
STARLINK-1231 3.5 21:32:28 10° W 21:36:38 85° SSW 21:40:47 10° ESE
STARLINK-1246 3.6 21:34:43 10° W 21:38:52 86° N 21:43:03 10° E
Cosmos 1943 Rocket 2.2 21:33:58 10° SSW 21:39:32 86° WNW 21:45:12 10° NNE
Cosmos 1992 Rocket 4.4 21:36:08 17° S 21:39:49 46° ESE 21:44:48 10° NE
NOSS 2-2 (E) 4.0 21:37:09 10° WSW 21:40:48 58° NW 21:45:16 10° NE
NOSS 3-4 (A) 3.9 21:36:32 14° S 21:41:06 39° ESE 21:46:55 10° NE
NOSS 3-4 (C) 4.0 21:36:40 15° S 21:41:13 39° ESE 21:47:01 10° NE
STARLINK-1232 3.5 21:37:28 10° W 21:41:38 83° SSW 21:45:47 10° ESE
SeaSat 1 3.2 21:37:05 10° NE 21:41:38 36° ESE 21:44:35 19° SSE
EO 1 Del DPAF 3.6 21:38:40 10° NNE 21:42:21 47° E 21:44:29 22° SSE
STARLINK-1224 3.6 21:39:41 10° W 21:43:51 85° N 21:48:01 10° E
STARLINK-1208 3.5 21:42:25 10° W 21:46:35 81° SSW 21:50:44 10° ESE
STARLINK-1225 3.6 21:44:41 10° W 21:48:51 85° N 21:53:01 10° E
Cosmos 1975 Rocket 3.8 21:44:48 10° SSW 21:49:07 51° WNW 21:53:26 10° N
STARLINK-1212 3.3 21:46:39 10° W 21:49:37 42° SSW 21:50:47 28° SSE
STARLINK-1105 3.3 21:47:07 10° W 21:50:05 42° SSW 21:51:12 28° SSE
Meteor 2-10 3.9 21:45:08 10° NNW 21:50:13 79° ENE 21:53:43 20° SSE
STARLINK-1247 3.3 21:47:59 10° W 21:50:58 41° SSW 21:52:06 28° SSE
STARLINK-1227 3.3 21:48:29 10° W 21:51:27 41° SSW 21:52:33 29° SSE
STARLINK-1271 3.5 21:47:26 10° W 21:51:36 79° SSW 21:55:45 10° ESE
STARLINK-1226 3.3 21:49:21 10° W 21:52:18 41° SSW 21:53:24 29° SSE
BREEZE-M DEB (TANK) 3.3 21:40:58 10° WSW 21:52:27 58° S 21:55:52 10° E
Cosmos 292 Rocket 3.7 21:48:19 12° SSW 21:52:46 84° ESE 21:57:40 10° NNE
BREEZE-M DEB (TANK) 3.0 21:49:19 10° W 21:52:58 50° S 21:56:52 10° ESE
STARLINK-1215 3.4 21:50:15 10° W 21:53:13 40° SSW 21:54:16 29° SSE
S3M 4.0 21:47:18 10° N 21:53:31 86° E 21:58:11 19° S
Cosmos 2227 Rocket 4.1 21:49:01 10° NNW 21:53:48 27° NE 21:58:32 10° E
STARLINK-1230 3.6 21:49:39 10° W 21:53:49 85° N 21:57:59 10° E
RESURS DK-1 4.3 21:53:56 14° ESE 21:54:56 15° ESE 21:57:14 10° ENE
STARLINK-1217 3.4 21:52:04 10° W 21:55:01 39° SSW 21:56:01 29° SSE
Cosmos 2369 Rocket 2.2 21:50:03 10° SSW 21:55:43 88° WNW 22:01:25 10° NNE
STARLINK-1229 3.4 21:52:58 10° W 21:55:56 39° SSW 21:56:54 30° SSE
STARLINK-1154 3.5 21:52:25 10° W 21:56:34 77° SSW 22:00:43 10° ESE
STARLINK-1270 3.4 21:53:52 10° W 21:56:49 38° SSW 21:57:45 30° SSE
STARLINK-1189 3.5 21:55:40 10° W 21:58:36 38° SSW 21:59:29 30° SSE
STARLINK-1243 3.6 21:54:39 10° W 21:58:49 84° N 22:02:59 10° E
STARLINK-1188 3.5 21:56:35 10° W 21:59:31 37° SSW 22:00:21 30° S
Cosmos 1340 Rocket 2.9 21:56:02 10° N 22:00:06 74° ENE 22:02:31 24° SSE
STARLINK-1187 3.6 21:57:42 10° W 22:00:34 34° SSW 22:01:14 30° S
ATLAS CENTAUR R/B 2.2 21:59:35 23° S 22:01:31 34° ESE 22:05:14 10° ENE
STARLINK-1197 3.5 21:57:22 10° W 22:01:31 74° SSW 22:05:39 10° ESE
STARLINK-1191 3.5 21:59:02 10° W 22:01:56 36° SSW 22:02:39 31° S
Aureole 3 3.3 21:58:46 10° N 22:02:01 47° ENE 22:03:25 26° SE
STARLINK-1221 3.5 22:00:00 10° W 22:02:53 35° SSW 22:03:34 31° S
Thor Agena Rocket 3.6 21:57:47 10° NNE 22:03:08 80° ESE 22:07:11 17° SSW
STARLINK-1222 3.6 22:00:51 10° W 22:03:43 35° SSW 22:04:23 31° S
STARLINK-1236 3.6 21:59:37 10° W 22:03:47 84° N 22:07:57 10° E
STARLINK-1214 3.6 22:01:45 10° W 22:04:37 34° SSW 22:05:15 31° S
Cosmos 1908 4.0 22:01:31 10° N 22:05:10 41° ENE 22:07:21 21° SE
NOSS 2-2 (C) 4.4 22:01:55 10° WSW 22:05:30 47° NNW 22:09:50 10° NE
Cosmos 1025 Rocket 3.0 22:02:58 20° S 22:05:53 89° W 22:10:14 10° N
STARLINK-1198 3.5 22:02:21 10° WNW 22:06:30 72° SSW 22:10:32 10° ESE
EXPRESS MD2 4.3 22:02:26 10° WSW 22:06:41 68° S 22:15:43 10° E
Cosmos 1553 Rocket 4.3 22:00:45 10° NNW 22:06:56 61° W 22:11:43 17° S
Cosmos 1953 2.3 22:04:24 10° NNW 22:08:25 81° W 22:10:41 25° S
BREEZE M DEB (TANK) 2.1 22:06:02 10° WSW 22:08:33 39° S 22:08:33 39° S
ATLAS 2AS CENTAUR R/B 3.1 22:01:29 10° SSW 22:09:20 64° SE 22:17:08 10° NE
Cosmos 1656 Rocket 3.7 22:04:50 16° SSW 22:09:20 67° ESE 22:14:53 10° NE
Cosmos 1470 3.8 22:05:49 10° NNW 22:09:24 36° W 22:11:51 17° SSW
BREEZE-M DEB (TANK) 4.5 21:57:56 10° WNW 22:09:24 40° SW 22:11:57 22° SSE
STARLINK-1228 4.1 22:07:16 10° W 22:10:22 30° SSW 22:11:08 27° S
STARLINK-1199 3.5 22:07:21 10° WNW 22:11:29 69° SSW 22:15:21 12° ESE
STARLINK-1235 4.0 22:10:00 10° W 22:12:50 28° SSW 22:13:12 27° SSW
STARLINK-1269 3.6 22:09:35 10° W 22:13:46 85° N 22:17:56 10° E
APEX 4.2 22:07:36 10° SSW 22:13:57 88° NW 22:19:05 10° NNE
Cosmos 968 Rocket 4.4 22:09:31 10° NW 22:14:16 38° WSW 22:17:31 18° SSW
Cosmos 2292 Rocket 3.3 22:13:24 27° SSE 22:15:01 51° E 22:18:05 10° NNE
STARLINK-1210 3.5 22:12:19 10° WNW 22:16:26 67° SSW 22:20:07 13° ESE
STARLINK-1200 3.6 22:14:33 10° W 22:18:43 86° N 22:22:54 10° E
Cosmos 1777 Rocket 4.2 22:14:16 10° NNW 22:19:31 71° ENE 22:23:18 19° SE
Cosmos 1655 Rocket 4.0 22:15:01 18° S 22:19:52 88° W 22:26:12 10° N
SL-4 R/B 0.3 22:20:18 64° S 22:20:32 80° WSW 22:22:44 10° NNW
STARLINK-1219 3.6 22:17:17 10° WNW 22:21:24 64° SSW 22:24:53 14° ESE
ATLAS 5 CENTAUR R/B 1.5 22:21:46 22° SSW 22:23:31 43° SE 22:25:36 10° ENE
STARLINK-1192 3.6 22:19:33 10° W 22:23:43 86° N 22:27:54 10° E
Cosmos 2228 3.2 22:21:55 10° N 22:26:10 64° ENE 22:28:36 24° SSE
STARLINK-52 3.8 22:26:27 30° SE 22:26:27 30° SE 22:29:09 10° E
STARLINK-1211 3.6 22:22:17 10° WNW 22:26:23 61° SSW 22:29:40 15° SE
Meteor 2-15 4.5 22:20:41 10° NNW 22:26:52 86° W 22:31:06 21° S
Cosmos 1726 Rocket 3.9 22:22:39 10° N 22:26:55 55° ENE 22:29:30 22° SE
Terra 4.1 22:24:24 10° SW 22:27:19 16° W 22:30:15 10° NW
SL-4 R/B 2.5 22:23:16 10° SW 22:27:57 52° SSE 22:32:38 10° E
STARLINK-1244 3.6 22:24:32 10° W 22:28:42 87° NNE 22:32:52 10° E
ERBS 3.7 22:26:56 10° WNW 22:30:06 39° N 22:33:16 10° E
Cosmos 1300 4.2 22:27:45 10° N 22:31:08 29° ENE 22:33:33 16° ESE
STARLINK-1245 3.6 22:27:15 10° WNW 22:31:21 59° SSW 22:34:26 17° SE
Cosmos 921 Rocket 4.5 22:31:52 18° SE 22:33:40 24° E 22:37:09 10° NE
In-Cosmos 22 4.0 22:30:05 21° S 22:33:40 86° E 22:38:59 10° NNE
STARLINK-1138 3.6 22:29:32 10° W 22:33:42 88° NNE 22:37:51 10° E
STARLINK-1233 3.7 22:32:13 10° WNW 22:36:17 56° SSW 22:39:12 18° SE
Cosmos 2266 Rocket 3.9 22:33:43 20° S 22:38:08 87° WNW 22:44:13 10° N
STARLINK-1143 3.6 22:34:29 10° W 22:38:39 89° NNE 22:42:48 10° E
STARLINK-1204 3.7 22:37:12 10° WNW 22:41:16 53° SSW 22:43:59 19° SE
SJ 16-02 3.1 22:38:47 10° N 22:42:39 28° NE 22:46:30 10° ESE
STARLINK-1241 3.5 22:39:31 10° W 22:43:40 89° S 22:47:50 10° E
STARLINK-1238 3.8 22:42:13 10° W 22:46:15 51° SSW 22:48:47 21° SE
Meteor 2-15 Rocket 4.5 22:40:37 10° NNW 22:46:48 77° W 22:50:55 22° S
Helios 1B rocket 4.1 22:44:51 10° NE 22:48:11 23° E 22:50:09 17° SE
STARLINK-1239 3.5 22:44:29 10° W 22:48:38 88° S 22:52:48 10° ESE
Cosmos 1674 2.6 22:48:20 29° S 22:50:09 85° E 22:53:59 10° NNE
STARLINK-1201 3.8 22:47:12 10° W 22:51:12 48° SSW 22:53:33 22° SE
STARLINK-1240 3.5 22:49:26 10° W 22:53:36 86° S 22:57:45 10° ESE
STARLINK-1206 3.9 22:52:12 10° W 22:56:10 46° SSW 22:58:21 23° SSE
STARLINK-60 2.8 22:53:16 10° WSW 22:56:27 71° SSE 22:59:39 10° E
Cosmos 2219 3.4 22:51:41 10° NNW 22:57:22 70° NE 23:02:17 14° SE
COSMOS 2455 2.8 22:52:50 15° SSW 22:57:55 84° SE 23:04:00 10° NE
USA 215 3.4 22:52:57 14° SE 22:58:32 55° SW 23:04:57 10° WNW
STARLINK-1216 3.5 22:54:24 10° W 22:58:34 84° S 23:02:43 10° ESE
STARLINK-1203 3.5 22:54:29 10° W 22:58:43 84° S 23:02:55 10° ESE
STARLINK-1205 4.0 22:57:10 10° W 23:01:07 43° SSW 23:03:07 25° SSE
Cosmos 2297 Rocket 2.6 22:56:00 10° NNW 23:01:39 63° NE 23:07:00 11° SE
STARLINK-1237 3.5 22:59:23 10° W 23:03:34 82° S 23:07:42 10° ESE
Helios 1A 3.1 23:01:35 27° S 23:03:46 65° WSW 23:07:57 10° NNW
Lacrosse 4 Rocket 3.1 23:01:27 10° NNW 23:05:26 33° NE 23:09:20 10° ESE
Cosmos 1726 3.9 23:02:35 10° NW 23:05:30 22° W 23:07:20 16° SW
STARLINK-1218 4.0 23:02:11 10° W 23:06:05 41° SSW 23:07:55 26° SSE
STARLINK-1202 3.5 23:04:23 10° W 23:08:32 80° SSW 23:12:41 10° ESE
STARLINK-1368 4.4 23:08:27 27° SSE 23:08:44 27° SE 23:11:59 10° E
Cosmos 1174 3.7 23:06:36 20° SW 23:08:49 71° NW 23:12:51 10° NE
Timation 2 Rocket 4.1 23:02:43 10° NW 23:08:57 59° WSW 23:12:55 22° S
Cosmos 2058 Rocket 3.0 23:04:58 10° N 23:09:26 89° W 23:11:58 26° S
Cosmos 1455 4.5 23:06:47 10° NNE 23:09:30 19° ENE 23:12:12 10° ESE
COSMOS 2487 4.3 23:07:08 10° WNW 23:09:32 18° W 23:10:32 16° WSW
ALOS 2 3.6 23:07:47 21° SSW 23:10:03 35° W 23:14:07 10° NNW
STARLINK-1254 4.1 23:07:10 10° W 23:11:02 39° SSW 23:12:41 27° SSE
Cosmos 1898 Rocket 4.4 23:06:55 10° NNW 23:12:06 47° NE 23:17:13 10° SE
STARLINK-1369 4.3 23:11:47 28° SSE 23:12:11 29° SE 23:15:29 10° E
CENTAUR R/B 4.3 23:07:05 10° WNW 23:13:29 26° WSW 23:18:17 16° SSW
STARLINK-1372 4.2 23:15:07 29° SSE 23:15:38 30° SSE 23:19:00 10° E
STARLINK-1231 4.2 23:12:09 10° W 23:15:59 37° SSW 23:17:27 27° S
Starlink 7 placeholder 3.7 23:17:57 22° E 23:17:57 22° E 23:18:50 10° E
ATLAS 3B R/B 3.4 23:11:08 10° NW 23:17:15 37° WSW 23:21:09 21° S
Meteor 2-5 Rocket 3.7 23:14:12 23° S 23:17:50 89° ESE 23:23:32 10° NNE
STARLINK-1246 3.5 23:14:21 10° W 23:18:30 75° SSW 23:22:38 10° ESE
STARLINK-1378 4.2 23:18:28 29° SSE 23:19:07 31° SSE 23:22:31 10° E
SeaSat 1 3.3 23:14:31 10° NNE 23:19:17 49° NW 23:24:02 10° WSW
Cosmos 1606 Rocket 4.3 23:15:19 10° NNW 23:19:22 39° W 23:21:36 22° SSW
STARLINK-1232 4.3 23:17:10 10° W 23:20:57 34° SSW 23:22:15 28° S
SL-14 R/B 3.3 23:19:11 29° S 23:21:02 69° E 23:24:53 10° NNE
FALCON 9 DEB 3.3 23:20:07 28° SW 23:21:34 50° SSE 23:24:55 10° E
STARLINK-1379 4.1 23:21:51 30° S 23:22:37 33° SSE 23:26:03 10° E
STARLINK-1224 3.5 23:19:19 10° WNW 23:23:27 73° SSW 23:27:36 10° ESE
STARLINK-1329 4.1 23:23:14 30° S 23:24:04 33° SSE 23:27:31 10° E
Cosmos 1943 Rocket 4.3 23:19:34 10° W 23:24:06 25° NW 23:28:43 10° NNE
Meteor 2-21 4.5 23:20:59 22° S 23:25:12 89° ESE 23:31:28 10° NNE
STARLINK-1208 4.3 23:22:09 10° W 23:25:52 33° SSW 23:27:00 28° S
STARLINK-29 2.8 23:24:02 17° WSW 23:26:21 68° SSE 23:29:32 10° E
SL-16 R/B 3.9 23:21:34 10° ESE 23:27:05 36° ENE 23:32:39 10° N
STARLINK-1362 4.1 23:26:40 30° S 23:27:37 35° SSE 23:31:07 10° E
ATLAS CENTAUR R/B 1.0 23:26:00 10° WNW 23:28:09 60° SSW 23:32:07 10° SE
STARLINK-1225 3.5 23:24:19 10° WNW 23:28:27 70° SSW 23:32:35 10° ESE
STARLINK-1271 4.4 23:27:11 10° W 23:30:52 31° SW 23:31:49 27° S
STARLINK-1373 4.0 23:30:05 30° S 23:31:10 36° SSE 23:34:43 10° E
NOSS 3-4 (A) 3.9 23:25:43 10° WSW 23:31:43 64° NW 23:38:17 10° NE
NOSS 3-4 (C) 3.9 23:25:47 10° WSW 23:31:49 64° NW 23:38:23 10° NE
RESURS DK-1 2.4 23:29:48 22° SW 23:32:23 81° NW 23:36:33 10° NNE
STARLINK-1365 4.0 23:31:12 29° S 23:32:24 38° SSE 23:35:59 10° E
STARLINK-1230 3.5 23:29:17 10° WNW 23:33:24 68° SSW 23:37:32 10° ESE
STARLINK-1390 4.0 23:33:35 29° SSW 23:34:47 38° SSE 23:38:21 10° E
Cosmos 1812 Rocket 4.1 23:31:15 10° N 23:35:40 55° ENE 23:38:55 17° SSE
STARLINK-1154 4.5 23:32:11 10° W 23:35:47 29° SW 23:36:35 27° SSW
Cosmos 1697 Rocket 4.2 23:32:47 14° SSE 23:36:17 24° ESE 23:40:41 10° NE
Cosmos 2084 3.5 23:33:36 22° SW 23:36:27 73° SE 23:40:56 10° NE
BREEZE-M R/B 3.9 23:31:44 11° SW 23:37:28 35° SSE 23:40:50 10° E
Cosmos 1626 2.1 23:36:00 28° SSW 23:37:51 75° WNW 23:41:35 10° N
STARLINK-1243 3.5 23:34:17 10° WNW 23:38:24 65° SSW 23:42:30 10° ESE
Cosmos 990 Rocket 4.2 23:33:09 10° NNW 23:38:26 73° ENE 23:43:10 13° SSE
Cosmos 2227 Rocket 2.2 23:32:52 10° NNW 23:38:36 87° WSW 23:43:30 14° SSE
Okean 1-7 Rocket 3.7 23:37:39 24° SSW 23:40:20 70° WNW 23:44:54 10° N
ATLAS CENTAUR R/B 2.3 23:36:13 10° WSW 23:40:21 46° NW 23:44:15 10° NE
Cosmos 2369 Rocket 4.2 23:35:53 10° W 23:40:33 25° NW 23:45:11 10° NNE
CZ-4 R/B 3.8 23:36:07 10° NNE 23:40:56 78° ESE 23:43:50 24° S
STARLINK-1236 3.5 23:39:15 10° WNW 23:43:21 62° SSW 23:47:26 10° ESE
Landsat 4 4.4 23:45:14 10° N 23:48:48 45° WNW 23:51:00 21° SW
Cosmos 1602 Rocket 3.9 23:47:23 22° SSE 23:49:59 55° E 23:54:14 10° NNE
SL-08 ROCKET BODY 4.4 23:46:46 20° S 23:50:53 72° E 23:56:43 10° NNE
Cosmos 2285 Rocket 4.4 23:45:52 10° NNW 23:52:14 63° ENE 23:58:30 10° SE
STARLINK-1269 3.6 23:49:13 10° WNW 23:53:18 57° SSW 23:57:22 10° SE
